COSMOS 1275 DEB, 14406

Orbit data source: Space-Track

COSMOS 1275 DEB, 14406 is space debris in LEO originally from a launch on Thu, 04 Jun 1981 UTC launched from the Plesetsk Missile And Space Complex (PKMTR). Debris objects in space refer to the collection of defunct objects orbiting the Earth. Examples of debris include non-operational satellites, rocket bodies, and fragments generated from explosions, collisions, or faulty payload assembly.

Loading next visibility...
Identifier
14406, 1981-053JB
Orbit
LEO
Country
Flag of CISCIS
Related business
Manufacturer
Unknown
Mission
Spacecraft
Bus & Motor
Unknown
Mass
Unknown
Launch date (UTC)
1981-06-04 (45 years ago)
Launch vehicle
Unknown
Launch site
Plesetsk Missile And Space Complex (PKMTR)
Object type
Payload
Rocket body
Debris
Shape & HBR
Unknown shape, 0.1 m
Radar Cross Section
Medium (>0.1 m² and <1 m²)

Expand to show TLE details & history
Last TLE update: 15 hours ago

TLE from 15 hours ago
0 COSMOS 1275 DEB
1 14406U 81053JB  26255.62617727  .00001632  00000-0  72540-3 0  9993
2 14406  82.8377 313.6408 0016426 302.5848 211.1477 14.22374028234247
Epoch: 2026-09-12T15:01Z
TLE epoch observation values (Epoch: 2026-09-12T15:01:41.716Z)
Latitude
26.17739°
Longitude
-86.93823°
Altitude
830.684 km
Speed
7.435 km/s
True Right ascension
08h 40m 28s
True Declination
26° 02' 34"
Sunlit
Object was in daylight at epoch
Visualization orbit readout
Latitude
Unknown
Longitude
Unknown
Altitude
Unknown
Speed
Unknown
Apparent Right ascension
Unknown
Apparent Declination
Unknown
Sunlit
N/A
Visualization observer readout
Local Sidereal Time
22:10:01
Azimuth
Unknown
Elevation
Unknown
Doppler factor
Unknown
Orbital elements
Apogee altitude
826.237 km
Perigee altitude
802.608 km
Semi-major axis
7,192.56 km
Eccentricity
0.00164
Inclination
82.8377°
RAAN
313.6408°
Arg. of periapsis
302.5848°
True anomaly
211.05051°
Mean anomaly
211.1477°
Eccentric anomaly
211.09909°
Mean motion
3.5581 °/min
Orbital period
101.18 mins
BSTAR
0.0007254
Loading maneuver chart data...
Computing Atmospheric mass density...
Loading historical data...
Loading historical data...
Loading historical data...
Loading historical data...
Loading historical data...
Loading historical data...
Loading historical data...

Documentation

Showing up to 5 results
|